Regional Weather Roundup
Issued by NWS

Home | Current Version | Previous Version | Text Only | Print | Product List | Glossary On
Versions: 1 2 3 4 5 6 7 8 9 10 11 12 13 14 15 16 17 18 19 20 21 22 23 24 25 26 27
929
ASUS45 KTFX 221310
RWRMT
MONTANA REGIONAL WEATHER ROUNDUP
NATIONAL WEATHER SERVICE GREAT FALLS MT
700 AM MDT FRI MAY 22 2015

NOTE: "FAIR" INDICATES FEW OR NO CLOUDS BELOW 12000 FEET WITH NO
SIGNIFICANT WEATHER AND/OR OBSTRUCTIONS TO VISIBILITY.

MTZ001>007-043-221400-
WEST OF THE DIVIDE

CITY           SKY/WX    TMP DP  RH WIND       PRES   REMARKS
KALISPELL      SUNNY     47  38  71 NW5       29.93R
MISSOULA       CLEAR     47  41  80 CALM      29.96R
BUTTE          CLOUDY    38  36  92 CALM      30.00S
MULLAN PASS    CLEAR     49  37  63 SE5       29.99R
DEER LODGE       N/A     43  39  87 CALM      30.02S
EUREKA           N/A     45  34  65 CALM      29.96R
HAMILTON         N/A     48  43  81 S7        29.95R
LIBBY            N/A     43  37  81 CALM      29.93S
RONAN            N/A     42  39  89 CALM      29.97R
THOMPSON FALLS   N/A     43  40  89 W3        29.97R
$$

MTZ008-052>055-221400-
SOUTHWEST MONTANA

CITY           SKY/WX    TMP DP  RH WIND       PRES   REMARKS
BOZEMAN        SUNNY     43  40  89 S3        29.98S
DILLON         CLOUDY    46  42  86 CALM      29.97R
W YELLOWSTONE  MOSUNNY   32  32 100 CALM      30.02S
THREE FORKS      N/A     43  26  51 CALM      29.97S
TWIN BRIDGES     N/A     44  38  79 CALM      29.97R
$$

MTZ009-010-012-014-046-048-049-054-221400-
EAST SLOPES AND CENTRAL MONTANA

CITY           SKY/WX    TMP DP  RH WIND       PRES   REMARKS
CUT BANK       SUNNY     46  29  51 CALM      29.98S
GREAT FALLS    SUNNY     48  42  80 CALM      29.96R
MALMSTROM AFB  SUNNY     43  40  91 SE3       29.97R
HELENA         SUNNY     47  42  83 CALM      29.96S
CONRAD           N/A     40  39  96 CALM      30.00R
$$

MTZ011-013-016-021-045-047-050-051-221400-
NORTH CENTRAL MONTANA

CITY           SKY/WX    TMP DP  RH WIND       PRES   REMARKS
HAVRE          SUNNY     46  34  62 E8        29.99R
LEWISTOWN      SUNNY     47  39  74 SE9       29.99R
N BAR RANCH    FAIR      43  39  87 CALM      30.03S
CHINOOK          N/A     45  34  65 E6        30.02S
FORT BENTON      N/A     50  32  50 NE8       29.97S
$$

MTZ017>020-022>027-061-062-221400-
NORTHEAST MONTANA

CITY           SKY/WX    TMP DP  RH WIND       PRES   REMARKS
GLASGOW        SUNNY     51  34  52 E13       30.06R
JORDAN           N/A     49  33  54 E9        30.03S
SIDNEY         SUNNY     46  37  71 N3        30.13S
WOLF POINT     SUNNY     47  38  71 E8        30.10S
MALTA            N/A     49  36  61 NE6       30.00S
PLENTYWOOD       N/A     55  37  50 CALM      30.12S
POPLAR           N/A     50  37  62 N5        30.11S
$$

MTZ028>42-056>058-221400-
SOUTHCENTRAL AND SOUTHEAST MONTANA

CITY           SKY/WX    TMP DP  RH WIND       PRES   REMARKS
BAKER          MOSUNNY   46  33  60 SE10      30.10S
BILLINGS       PTSUNNY   48  42  80 SW3       29.96S
LIVINGSTON     SUNNY     40  38  93 CALM      29.99S
MILES CITY     PTSUNNY   51  38  60 SE5       30.03F
BIG TIMBER       N/A     43  39  87 W3        30.00R
EKALAKA          N/A     51  38  61 SE9       30.04F
FORSYTH          N/A     50  39  66 E10       29.99F
LAUREL           N/A     45  39  79 CALM      29.96R
ROUNDUP          N/A     42  32  68 CALM      29.90S
$$

REGIONAL REPORTS...DAKOTAS

CITY           SKY/WX    TMP DP  RH WIND       PRES   REMARKS
WILLISTON      SUNNY     51  39  63 NE3       30.13S
MINOT          SUNNY     56  38  50 S5        30.14S
DICKINSON      SUNNY     50  37  61 SE6       30.12S
BEACH          FAIR      48  37  66 SE8       30.12S
CROSBY         FAIR      52  41  66 S7        30.14S
WATFORD CITY   FAIR      48  37  66 SE6       30.12S
BISMARCK       SUNNY     50  43  77 CALM      30.17R
GRAND FORKS    SUNNY     52  42  69 SW5       30.18R
FARGO          SUNNY     53  44  71 CALM      30.19S
BUFFALO SD       N/A     48  36  63 E9        30.04R
RAPID CITY     CLOUDY    52  46  80 SE10      30.09S
$$

REGIONAL REPORTS...WYOMING/IDAHO/WASHINGTON

CITY           SKY/WX    TMP DP  RH WIND       PRES   REMARKS
GILLETTE       CLOUDY    49  44  83 SE8       30.01F
SHERIDAN       PTSUNNY   45  42  89 NW6       29.97R
BUFFALO WY     CLOUDY    47  44  90 S12       29.99S
CODY           CLOUDY    46  43  87 CALM      29.97S
YELLOWSTONE LA   N/A     34  32  92 CALM      30.06S
IDAHO FALLS    LGT RAIN  49  46  90 NE8       29.94S
SALMON         MOCLDY    45  43  93 CALM      29.95R
BOISE          PTCLDY    52  46  80 SE5       29.88R
SPOKANE        MOCLDY    60  48  64 SE7       29.86R
$$

REGIONAL REPORTS...ALBERTA

CITY           SKY/WX    TMP DP  RH WIND       PRES   REMARKS
EDMONTON       SUNNY     50  39  66 CALM      29.97S
CALGARY        MOSUNNY   41  32  70 VRB3      29.99R
LETHBRIDGE     MOSUNNY   43  37  81 W3        29.98R
MEDICINE HAT   SUNNY     50  30  46 NE7       30.00S
$$

REGIONAL REPORTS...SASKATCHEWAN

CITY           SKY/WX    TMP DP  RH WIND       PRES   REMARKS
SWIFT CURRENT  SUNNY     52  36  54 SE7       30.08S
REGINA         SUNNY     50  39  66 SE7       30.13R
SASKATOON      SUNNY     52  39  62 VRB2      30.10R
$$



USA.gov is the U.S. government's official web portal to all federal, state and local government web resources and services.